Year,Month,Day,Hour,Minute,Value (Times are PST for temperature in C)
2013,08,23,00,00,17.80
2013,08,23,00,01,17.80
2013,08,23,00,02,17.80
2013,08,23,00,03,17.90
2013,08,23,00,04,17.90
2013,08,23,00,05,18.00
2013,08,23,00,06,18.00
2013,08,23,00,07,18.00
2013,08,23,00,08,18.00
2013,08,23,00,09,18.00
2013,08,23,00,10,18.00
2013,08,23,00,11,18.00
2013,08,23,00,12,17.90
2013,08,23,00,13,17.80
2013,08,23,00,14,17.80
2013,08,23,00,15,17.70
2013,08,23,00,16,17.70
2013,08,23,00,17,17.70
2013,08,23,00,18,17.60
2013,08,23,00,19,17.60
2013,08,23,00,20,17.60
2013,08,23,00,21,17.60
2013,08,23,00,22,17.60
2013,08,23,00,23,17.50
2013,08,23,00,24,17.50
2013,08,23,00,25,17.40
2013,08,23,00,26,17.40
2013,08,23,00,27,17.30
2013,08,23,00,28,17.30
2013,08,23,00,29,17.20
2013,08,23,00,30,17.20
2013,08,23,00,31,17.10
2013,08,23,00,32,17.00
2013,08,23,00,33,16.90
2013,08,23,00,34,16.80
2013,08,23,00,35,16.70
2013,08,23,00,36,16.70
2013,08,23,00,37,16.60
2013,08,23,00,38,16.50
2013,08,23,00,39,16.40
2013,08,23,00,40,16.40
2013,08,23,00,41,16.20
2013,08,23,00,42,16.20
2013,08,23,00,43,16.10
2013,08,23,00,44,16.10
2013,08,23,00,45,16.10
2013,08,23,00,46,16.20
2013,08,23,00,47,16.20
2013,08,23,00,48,16.20
2013,08,23,00,49,16.30
2013,08,23,00,50,16.30
2013,08,23,00,51,16.30
2013,08,23,00,52,16.40
2013,08,23,00,53,16.60
2013,08,23,00,54,16.70
2013,08,23,00,55,16.70
2013,08,23,00,56,16.70
2013,08,23,00,57,16.80
2013,08,23,00,58,16.70
2013,08,23,00,59,16.70
2013,08,23,01,00,16.60
2013,08,23,01,01,16.40
2013,08,23,01,02,16.30
2013,08,23,01,03,16.20
2013,08,23,01,04,16.00
2013,08,23,01,05,15.90
2013,08,23,01,06,15.80
2013,08,23,01,07,15.70
2013,08,23,01,08,15.60
2013,08,23,01,09,15.50
2013,08,23,01,10,15.30
2013,08,23,01,11,15.30
2013,08,23,01,12,15.20
2013,08,23,01,13,15.10
2013,08,23,01,14,15.10
2013,08,23,01,15,15.10
2013,08,23,01,16,15.00
2013,08,23,01,17,15.00
2013,08,23,01,18,15.00
2013,08,23,01,19,15.00
2013,08,23,01,20,15.00
2013,08,23,01,21,15.00
2013,08,23,01,22,15.00
2013,08,23,01,23,15.00
2013,08,23,01,24,15.10
2013,08,23,01,25,15.10
2013,08,23,01,26,15.20
2013,08,23,01,27,15.20
2013,08,23,01,28,15.20
2013,08,23,01,29,15.20
2013,08,23,01,30,15.20
2013,08,23,01,31,15.20
2013,08,23,01,32,15.20
2013,08,23,01,33,15.20
2013,08,23,01,34,15.20
2013,08,23,01,35,15.20
2013,08,23,01,36,15.10
2013,08,23,01,37,15.10
2013,08,23,01,38,15.10
2013,08,23,01,39,15.00
2013,08,23,01,40,15.00
2013,08,23,01,41,15.00
2013,08,23,01,42,15.00
2013,08,23,01,43,15.00
2013,08,23,01,44,15.00
2013,08,23,01,45,15.00
2013,08,23,01,46,14.90
2013,08,23,01,47,14.90
2013,08,23,01,48,14.90
2013,08,23,01,49,14.90
2013,08,23,01,50,14.80
2013,08,23,01,51,14.80
2013,08,23,01,52,14.80
2013,08,23,01,53,14.80
2013,08,23,01,54,14.80
2013,08,23,01,55,14.70
2013,08,23,01,56,14.70
2013,08,23,01,57,14.70
2013,08,23,01,58,14.70
2013,08,23,01,59,14.60
2013,08,23,02,00,14.60
2013,08,23,02,01,14.50
2013,08,23,02,02,14.50
2013,08,23,02,03,14.40
2013,08,23,02,04,14.40
2013,08,23,02,05,14.30
2013,08,23,02,06,14.30
2013,08,23,02,07,14.30
2013,08,23,02,08,14.20
2013,08,23,02,09,14.20
2013,08,23,02,10,14.20
2013,08,23,02,11,14.20
2013,08,23,02,12,14.20
2013,08,23,02,13,14.20
2013,08,23,02,14,14.20
2013,08,23,02,15,14.10
2013,08,23,02,16,14.10
2013,08,23,02,17,14.10
2013,08,23,02,18,14.10
2013,08,23,02,19,14.10
2013,08,23,02,20,14.10
2013,08,23,02,21,14.10
2013,08,23,02,22,14.10
2013,08,23,02,23,14.00
2013,08,23,02,24,14.00
2013,08,23,02,25,14.00
2013,08,23,02,26,13.90
2013,08,23,02,27,13.90
2013,08,23,02,28,13.90
2013,08,23,02,29,13.90
2013,08,23,02,30,13.90
2013,08,23,02,31,13.90
2013,08,23,02,32,13.90
2013,08,23,02,33,13.90
2013,08,23,02,34,14.00
2013,08,23,02,35,14.00
2013,08,23,02,36,14.00
2013,08,23,02,37,14.00
2013,08,23,02,38,14.00
2013,08,23,02,39,14.00
2013,08,23,02,40,14.00
2013,08,23,02,41,14.00
2013,08,23,02,42,14.00
2013,08,23,02,43,14.00
2013,08,23,02,44,14.00
2013,08,23,02,45,14.00
2013,08,23,02,46,14.00
2013,08,23,02,47,14.00
2013,08,23,02,48,14.00
2013,08,23,02,49,13.90
2013,08,23,02,50,13.90
2013,08,23,02,51,13.90
2013,08,23,02,52,13.90
2013,08,23,02,53,13.90
2013,08,23,02,54,13.90
2013,08,23,02,55,13.90
2013,08,23,02,56,13.90
2013,08,23,02,57,13.90
2013,08,23,02,58,13.90
2013,08,23,02,59,13.90
2013,08,23,03,00,13.90
2013,08,23,03,01,13.90
2013,08,23,03,02,13.90
2013,08,23,03,03,13.90
2013,08,23,03,04,13.90
2013,08,23,03,05,13.90
2013,08,23,03,06,13.80
2013,08,23,03,07,13.80
2013,08,23,03,08,13.80
2013,08,23,03,09,13.80
2013,08,23,03,10,13.80
2013,08,23,03,11,13.80
2013,08,23,03,12,13.80
2013,08,23,03,13,13.80
2013,08,23,03,14,13.80
2013,08,23,03,15,13.80
2013,08,23,03,16,13.80
2013,08,23,03,17,13.80
2013,08,23,03,18,13.80
2013,08,23,03,19,13.80
2013,08,23,03,20,13.80
2013,08,23,03,21,13.80
2013,08,23,03,22,13.80
2013,08,23,03,23,13.80
2013,08,23,03,24,13.80
2013,08,23,03,25,13.80
2013,08,23,03,26,13.80
2013,08,23,03,27,13.80
2013,08,23,03,28,13.80
2013,08,23,03,29,13.80
2013,08,23,03,30,13.80
2013,08,23,03,31,13.80
2013,08,23,03,32,13.80
2013,08,23,03,33,13.80
2013,08,23,03,34,13.80
2013,08,23,03,35,13.80
2013,08,23,03,36,13.80
2013,08,23,03,37,13.90
2013,08,23,03,38,13.90
2013,08,23,03,39,13.90
2013,08,23,03,40,13.90
2013,08,23,03,41,13.90
2013,08,23,03,42,13.90
2013,08,23,03,43,13.90
2013,08,23,03,44,13.90
2013,08,23,03,45,13.90
2013,08,23,03,46,13.90
2013,08,23,03,47,13.90
2013,08,23,03,48,13.90
2013,08,23,03,49,13.90
2013,08,23,03,50,13.90
2013,08,23,03,51,13.90
2013,08,23,03,52,13.90
2013,08,23,03,53,13.90
2013,08,23,03,54,13.90
2013,08,23,03,55,14.00
2013,08,23,03,56,14.00
2013,08,23,03,57,14.00
2013,08,23,03,58,14.00
2013,08,23,03,59,14.10
2013,08,23,04,00,14.10
2013,08,23,04,01,14.10
2013,08,23,04,02,14.10
2013,08,23,04,03,14.10
2013,08,23,04,04,14.10
2013,08,23,04,05,14.10
2013,08,23,04,06,14.10
2013,08,23,04,07,14.10
2013,08,23,04,08,14.10
2013,08,23,04,09,14.10
2013,08,23,04,10,14.10
2013,08,23,04,11,14.10
2013,08,23,04,12,14.20
2013,08,23,04,13,14.20
2013,08,23,04,14,14.20
2013,08,23,04,15,14.20
2013,08,23,04,16,14.20
2013,08,23,04,17,14.20
2013,08,23,04,18,14.30
2013,08,23,04,19,14.30
2013,08,23,04,20,14.30
2013,08,23,04,21,14.30
2013,08,23,04,22,14.30
2013,08,23,04,23,14.30
2013,08,23,04,24,14.30
2013,08,23,04,25,14.30
2013,08,23,04,26,14.30
2013,08,23,04,27,14.30
2013,08,23,04,28,14.20
2013,08,23,04,29,14.20
2013,08,23,04,30,14.20
2013,08,23,04,31,14.20
2013,08,23,04,32,14.20
2013,08,23,04,33,14.20
2013,08,23,04,34,14.10
2013,08,23,04,35,14.10
2013,08,23,04,36,14.10
2013,08,23,04,37,14.10
2013,08,23,04,38,14.10
2013,08,23,04,39,14.00
2013,08,23,04,40,14.00
2013,08,23,04,41,14.00
2013,08,23,04,42,14.00
2013,08,23,04,43,14.00
2013,08,23,04,44,13.90
2013,08,23,04,45,13.90
2013,08,23,04,46,13.90
2013,08,23,04,47,13.90
2013,08,23,04,48,13.90
2013,08,23,04,49,13.90
2013,08,23,04,50,13.90
2013,08,23,04,51,14.00
2013,08,23,04,52,14.00
2013,08,23,04,53,14.00
2013,08,23,04,54,14.00
2013,08,23,04,55,14.00
2013,08,23,04,56,14.00
2013,08,23,04,57,14.00
2013,08,23,04,58,14.10
2013,08,23,04,59,14.10
2013,08,23,05,00,14.10
2013,08,23,05,01,14.10
2013,08,23,05,02,14.10
2013,08,23,05,03,14.20
2013,08,23,05,04,14.20
2013,08,23,05,05,14.20
2013,08,23,05,06,14.20
2013,08,23,05,07,14.20
2013,08,23,05,08,14.20
2013,08,23,05,09,14.20
2013,08,23,05,10,14.20
2013,08,23,05,11,14.20
2013,08,23,05,12,14.20
2013,08,23,05,13,14.20
2013,08,23,05,14,14.20
2013,08,23,05,15,14.20
2013,08,23,05,16,14.30
2013,08,23,05,17,14.30
2013,08,23,05,18,14.30
2013,08,23,05,19,14.30
2013,08,23,05,20,14.30
2013,08,23,05,21,14.30
2013,08,23,05,22,14.30
2013,08,23,05,23,14.30
2013,08,23,05,24,14.30
2013,08,23,05,25,14.30
2013,08,23,05,26,14.30
2013,08,23,05,27,14.30
2013,08,23,05,28,14.20
2013,08,23,05,29,14.20
2013,08,23,05,30,14.20
2013,08,23,05,31,14.20
2013,08,23,05,32,14.20
2013,08,23,05,33,14.20
2013,08,23,05,34,14.20
2013,08,23,05,35,14.20
2013,08,23,05,36,14.20
2013,08,23,05,37,14.20
2013,08,23,05,38,14.20
2013,08,23,05,39,14.10
2013,08,23,05,40,14.10
2013,08,23,05,41,14.10
2013,08,23,05,42,14.10
2013,08,23,05,43,14.10
2013,08,23,05,44,14.00
2013,08,23,05,45,14.00
2013,08,23,05,46,14.00
2013,08,23,05,47,13.90
2013,08,23,05,48,13.90
2013,08,23,05,49,13.90
2013,08,23,05,50,13.90
2013,08,23,05,51,13.90
2013,08,23,05,52,13.80
2013,08,23,05,53,13.80
2013,08,23,05,54,13.80
2013,08,23,05,55,13.80
2013,08,23,05,56,13.80
2013,08,23,05,57,13.70
2013,08,23,05,58,13.70
2013,08,23,05,59,13.70
2013,08,23,06,00,13.70
2013,08,23,06,01,13.70
2013,08,23,06,02,13.70
2013,08,23,06,03,13.70
2013,08,23,06,04,13.70
2013,08,23,06,05,13.70
2013,08,23,06,06,13.70
2013,08,23,06,07,13.70
2013,08,23,06,08,13.70
2013,08,23,06,09,13.70
2013,08,23,06,10,13.70
2013,08,23,06,11,13.70
2013,08,23,06,12,13.70
2013,08,23,06,13,13.70
2013,08,23,06,14,13.70
2013,08,23,06,15,13.70
2013,08,23,06,16,13.70
2013,08,23,06,17,13.70
2013,08,23,06,18,13.70
2013,08,23,06,19,13.70
2013,08,23,06,20,13.70
2013,08,23,06,21,13.70
2013,08,23,06,22,13.70
2013,08,23,06,23,13.70
2013,08,23,06,24,13.70
2013,08,23,06,25,13.60
2013,08,23,06,26,13.60
2013,08,23,06,27,13.60
2013,08,23,06,28,13.60
2013,08,23,06,29,13.60
2013,08,23,06,30,13.60
2013,08,23,06,31,13.60
2013,08,23,06,32,13.60
2013,08,23,06,33,13.60
2013,08,23,06,34,13.60
2013,08,23,06,35,13.60
2013,08,23,06,36,13.60
2013,08,23,06,37,13.60
2013,08,23,06,38,13.60
2013,08,23,06,39,13.70
2013,08,23,06,40,13.70
2013,08,23,06,41,13.70
2013,08,23,06,42,13.70
2013,08,23,06,43,13.70
2013,08,23,06,44,13.70
2013,08,23,06,45,13.70
2013,08,23,06,46,13.70
2013,08,23,06,47,13.70
2013,08,23,06,48,13.70
2013,08,23,06,49,13.70
2013,08,23,06,50,13.70
2013,08,23,06,51,13.70
2013,08,23,06,52,13.70
2013,08,23,06,53,13.70
2013,08,23,06,54,13.70
2013,08,23,06,55,13.70
2013,08,23,06,56,13.70
2013,08,23,06,57,13.70
2013,08,23,06,58,13.70
2013,08,23,06,59,13.70
2013,08,23,07,00,13.70
2013,08,23,07,01,13.80
2013,08,23,07,02,13.80
2013,08,23,07,03,13.80
2013,08,23,07,04,13.80
2013,08,23,07,05,13.80
2013,08,23,07,06,13.80
2013,08,23,07,07,13.80
2013,08,23,07,08,13.80
2013,08,23,07,09,13.80
2013,08,23,07,10,13.80
2013,08,23,07,11,13.80
2013,08,23,07,12,13.80
2013,08,23,07,13,13.80
2013,08,23,07,14,13.80
2013,08,23,07,15,13.80
2013,08,23,07,16,13.80
2013,08,23,07,17,13.80
2013,08,23,07,18,13.80
2013,08,23,07,19,13.80
2013,08,23,07,20,13.90
2013,08,23,07,21,13.90
2013,08,23,07,22,13.90
2013,08,23,07,23,13.90
2013,08,23,07,24,13.90
2013,08,23,07,25,13.90
2013,08,23,07,26,13.90
2013,08,23,07,27,14.00
2013,08,23,07,28,14.00
2013,08,23,07,29,14.00
2013,08,23,07,30,14.10
2013,08,23,07,31,14.10
2013,08,23,07,32,14.10
2013,08,23,07,33,14.10
2013,08,23,07,34,14.20
2013,08,23,07,35,14.20
2013,08,23,07,36,14.20
2013,08,23,07,37,14.20
2013,08,23,07,38,14.30
2013,08,23,07,39,14.30
2013,08,23,07,40,14.30
2013,08,23,07,41,14.30
2013,08,23,07,42,14.30
2013,08,23,07,43,14.30
2013,08,23,07,44,14.30
2013,08,23,07,45,14.40
2013,08,23,07,46,14.40
2013,08,23,07,47,14.40
2013,08,23,07,48,14.40
2013,08,23,07,49,14.50
2013,08,23,07,50,14.50
2013,08,23,07,51,14.50
2013,08,23,07,52,14.60
2013,08,23,07,53,14.60
2013,08,23,07,54,14.60
2013,08,23,07,55,14.60
2013,08,23,07,56,14.70
2013,08,23,07,57,14.70
2013,08,23,07,58,14.80
2013,08,23,07,59,14.80
2013,08,23,08,00,14.90
2013,08,23,08,01,15.00
2013,08,23,08,02,15.00
2013,08,23,08,03,15.00
2013,08,23,08,04,15.00
2013,08,23,08,05,15.00
2013,08,23,08,06,15.00
2013,08,23,08,07,15.00
2013,08,23,08,08,15.10
2013,08,23,08,09,15.20
2013,08,23,08,10,15.20
2013,08,23,08,11,15.30
2013,08,23,08,12,15.30
2013,08,23,08,13,15.40
2013,08,23,08,14,15.40
2013,08,23,08,15,15.50
2013,08,23,08,16,15.50
2013,08,23,08,17,15.60
2013,08,23,08,18,15.60
2013,08,23,08,19,15.70
2013,08,23,08,20,15.70
2013,08,23,08,21,15.80
2013,08,23,08,22,15.80
2013,08,23,08,23,15.90
2013,08,23,08,24,16.00
2013,08,23,08,25,16.00
2013,08,23,08,26,16.10
2013,08,23,08,27,16.20
2013,08,23,08,28,16.30
2013,08,23,08,29,16.30
2013,08,23,08,30,16.40
2013,08,23,08,31,16.40
2013,08,23,08,32,16.40
2013,08,23,08,33,16.50
2013,08,23,08,34,16.50
2013,08,23,08,35,16.60
2013,08,23,08,36,16.60
2013,08,23,08,37,16.70
2013,08,23,08,38,16.70
2013,08,23,08,39,16.80
2013,08,23,08,40,16.80
2013,08,23,08,41,16.80
2013,08,23,08,42,16.80
2013,08,23,08,43,16.80
2013,08,23,08,44,16.80
2013,08,23,08,45,16.80
2013,08,23,08,46,16.80
2013,08,23,08,47,16.90
2013,08,23,08,48,16.90
2013,08,23,08,49,16.90
2013,08,23,08,50,16.90
2013,08,23,08,51,16.80
2013,08,23,08,52,16.80
2013,08,23,08,53,16.80
2013,08,23,08,54,16.70
2013,08,23,08,55,16.70
2013,08,23,08,56,16.70
2013,08,23,08,57,16.70
2013,08,23,08,58,16.70
2013,08,23,08,59,16.70
2013,08,23,09,00,16.70
2013,08,23,09,01,16.70
2013,08,23,09,02,16.70
2013,08,23,09,03,16.70
2013,08,23,09,04,16.70
2013,08,23,09,05,16.80
2013,08,23,09,06,16.80
2013,08,23,09,07,16.80
2013,08,23,09,08,16.80
2013,08,23,09,09,16.80
2013,08,23,09,10,16.80
2013,08,23,09,11,16.80
2013,08,23,09,12,16.80
2013,08,23,09,13,16.80
2013,08,23,09,14,16.80
2013,08,23,09,15,16.80
2013,08,23,09,16,16.80
2013,08,23,09,17,16.80
2013,08,23,09,18,16.80
2013,08,23,09,19,16.80
2013,08,23,09,20,16.90
2013,08,23,09,21,16.90
2013,08,23,09,22,16.90
2013,08,23,09,23,16.90
2013,08,23,09,24,16.90
2013,08,23,09,25,16.90
2013,08,23,09,26,16.90
2013,08,23,09,27,16.90
2013,08,23,09,28,16.90
2013,08,23,09,29,16.90
2013,08,23,09,30,16.80
2013,08,23,09,31,16.80
2013,08,23,09,32,16.80
2013,08,23,09,33,16.80
2013,08,23,09,34,16.90
2013,08,23,09,35,16.90
2013,08,23,09,36,16.90
2013,08,23,09,37,17.00
2013,08,23,09,38,17.00
2013,08,23,09,39,17.10
2013,08,23,09,40,17.10
2013,08,23,09,41,17.20
2013,08,23,09,42,17.20
2013,08,23,09,43,17.30
2013,08,23,09,44,17.30
2013,08,23,09,45,17.30
2013,08,23,09,46,17.40
2013,08,23,09,47,17.40
2013,08,23,09,48,17.50
2013,08,23,09,49,17.50
2013,08,23,09,50,17.60
2013,08,23,09,51,17.60
2013,08,23,09,52,17.70
2013,08,23,09,53,17.70
2013,08,23,09,54,17.80
2013,08,23,09,55,17.80
2013,08,23,09,56,17.90
2013,08,23,09,57,18.00
2013,08,23,09,58,18.00
2013,08,23,09,59,18.10
2013,08,23,10,00,18.10
2013,08,23,10,01,18.20
2013,08,23,10,02,18.20
2013,08,23,10,03,18.20
2013,08,23,10,04,18.20
2013,08,23,10,05,18.20
2013,08,23,10,06,18.10
2013,08,23,10,07,18.10
2013,08,23,10,08,18.10
2013,08,23,10,09,18.10
2013,08,23,10,10,18.10
2013,08,23,10,11,18.10
2013,08,23,10,12,18.20
2013,08,23,10,13,18.20
2013,08,23,10,14,18.10
2013,08,23,10,15,18.00
2013,08,23,10,16,17.90
2013,08,23,10,17,17.90
2013,08,23,10,18,17.80
2013,08,23,10,19,17.80
2013,08,23,10,20,17.70
2013,08,23,10,21,17.70
2013,08,23,10,22,17.70
2013,08,23,10,23,17.70
2013,08,23,10,24,17.70
2013,08,23,10,25,17.70
2013,08,23,10,26,17.70
2013,08,23,10,27,17.70
2013,08,23,10,28,17.70
2013,08,23,10,29,17.70
2013,08,23,10,30,17.80
2013,08,23,10,31,17.80
2013,08,23,10,32,17.90
2013,08,23,10,33,18.00
2013,08,23,10,34,18.10
2013,08,23,10,35,18.20
2013,08,23,10,36,18.20
2013,08,23,10,37,18.30
2013,08,23,10,38,18.40
2013,08,23,10,39,18.50
2013,08,23,10,40,18.70
2013,08,23,10,41,18.80
2013,08,23,10,42,18.90
2013,08,23,10,43,19.00
2013,08,23,10,44,19.10
2013,08,23,10,45,19.20
2013,08,23,10,46,19.30
2013,08,23,10,47,19.40
2013,08,23,10,48,19.40
2013,08,23,10,49,19.50
2013,08,23,10,50,19.50
2013,08,23,10,51,19.50
2013,08,23,10,52,19.50
2013,08,23,10,53,19.60
2013,08,23,10,54,19.60
2013,08,23,10,55,19.60
2013,08,23,10,56,19.70
2013,08,23,10,57,19.80
2013,08,23,10,58,19.90
2013,08,23,10,59,19.90
2013,08,23,11,00,19.90
2013,08,23,11,01,19.90
2013,08,23,11,02,19.80
2013,08,23,11,03,19.80
2013,08,23,11,04,19.70
2013,08,23,11,05,19.70
2013,08,23,11,06,19.70
2013,08,23,11,07,19.80
2013,08,23,11,08,19.90
2013,08,23,11,09,19.90
2013,08,23,11,10,19.80
2013,08,23,11,11,19.70
2013,08,23,11,12,19.80
2013,08,23,11,13,19.80
2013,08,23,11,14,19.90
2013,08,23,11,15,20.00
2013,08,23,11,16,20.00
2013,08,23,11,17,20.00
2013,08,23,11,18,19.90
2013,08,23,11,19,19.90
2013,08,23,11,20,19.80
2013,08,23,11,21,19.80
2013,08,23,11,22,19.80
2013,08,23,11,23,19.80
2013,08,23,11,24,19.80
2013,08,23,11,25,19.80
2013,08,23,11,26,19.80
2013,08,23,11,27,19.80
2013,08,23,11,28,19.70
2013,08,23,11,29,19.60
2013,08,23,11,30,19.50
2013,08,23,11,31,19.50
2013,08,23,11,32,19.50
2013,08,23,11,33,19.60
2013,08,23,11,34,19.60
2013,08,23,11,35,19.50
2013,08,23,11,36,19.50
2013,08,23,11,37,19.60
2013,08,23,11,38,19.70
2013,08,23,11,39,19.70
2013,08,23,11,40,19.80
2013,08,23,11,41,19.90
2013,08,23,11,42,19.90
2013,08,23,11,43,20.00
2013,08,23,11,44,20.10
2013,08,23,11,45,20.20
2013,08,23,11,46,20.20
2013,08,23,11,47,20.20
2013,08,23,11,48,20.10
2013,08,23,11,49,20.10
2013,08,23,11,50,20.10
2013,08,23,11,51,20.00
2013,08,23,11,52,20.10
2013,08,23,11,53,20.20
2013,08,23,11,54,20.30
2013,08,23,11,55,20.50
2013,08,23,11,56,20.50
2013,08,23,11,57,20.50
2013,08,23,11,58,20.40
2013,08,23,11,59,20.40
2013,08,23,12,00,20.30
2013,08,23,12,01,20.30
2013,08,23,12,02,20.20
2013,08,23,12,03,20.20
2013,08,23,12,04,20.10
2013,08,23,12,05,20.10
2013,08,23,12,06,20.20
2013,08,23,12,07,20.20
2013,08,23,12,08,20.30
2013,08,23,12,09,20.30
2013,08,23,12,10,20.30
2013,08,23,12,11,20.20
2013,08,23,12,12,20.10
2013,08,23,12,13,20.00
2013,08,23,12,14,19.90
2013,08,23,12,15,19.80
2013,08,23,12,16,19.80
2013,08,23,12,17,19.70
2013,08,23,12,18,19.70
2013,08,23,12,19,19.70
2013,08,23,12,20,19.70
2013,08,23,12,21,19.70
2013,08,23,12,22,19.80
2013,08,23,12,23,19.80
2013,08,23,12,24,19.90
2013,08,23,12,25,19.90
2013,08,23,12,26,19.90
2013,08,23,12,27,19.70
2013,08,23,12,28,19.50
2013,08,23,12,29,19.40
2013,08,23,12,30,19.30
2013,08,23,12,31,19.20
2013,08,23,12,32,19.20
2013,08,23,12,33,19.20
2013,08,23,12,34,19.10
2013,08,23,12,35,19.20
2013,08,23,12,36,19.20
2013,08,23,12,37,19.30
2013,08,23,12,38,19.30
2013,08,23,12,39,19.30
2013,08,23,12,40,19.40
2013,08,23,12,41,19.40
2013,08,23,12,42,19.50
2013,08,23,12,43,19.60
2013,08,23,12,44,19.60
2013,08,23,12,45,19.70
2013,08,23,12,46,19.70
2013,08,23,12,47,19.80
2013,08,23,12,48,19.80
2013,08,23,12,49,19.90
2013,08,23,12,50,19.90
2013,08,23,12,51,19.90
2013,08,23,12,52,19.90
2013,08,23,12,53,19.90
2013,08,23,12,54,20.00
2013,08,23,12,55,20.10
2013,08,23,12,56,20.20
2013,08,23,12,57,20.20
2013,08,23,12,58,20.20
2013,08,23,12,59,20.20
2013,08,23,13,00,20.20
2013,08,23,13,01,20.20
2013,08,23,13,02,20.20
2013,08,23,13,03,20.30
2013,08,23,13,04,20.30
2013,08,23,13,05,20.20
2013,08,23,13,06,20.20
2013,08,23,13,07,20.20
2013,08,23,13,08,20.20
2013,08,23,13,09,20.20
2013,08,23,13,10,20.20
2013,08,23,13,11,20.20
2013,08,23,13,12,20.20
2013,08,23,13,13,20.20
2013,08,23,13,14,20.20
2013,08,23,13,15,20.20
2013,08,23,13,16,20.20
2013,08,23,13,17,20.20
2013,08,23,13,18,20.20
2013,08,23,13,19,20.20
2013,08,23,13,20,20.20
2013,08,23,13,21,20.30
2013,08,23,13,22,20.30
2013,08,23,13,23,20.40
2013,08,23,13,24,20.40
2013,08,23,13,25,20.40
2013,08,23,13,26,20.40
2013,08,23,13,27,20.40
2013,08,23,13,28,20.40
2013,08,23,13,29,20.30
2013,08,23,13,30,20.30
2013,08,23,13,31,20.30
2013,08,23,13,32,20.30
2013,08,23,13,33,20.30
2013,08,23,13,34,20.30
2013,08,23,13,35,20.40
2013,08,23,13,36,20.40
2013,08,23,13,37,20.40
2013,08,23,13,38,20.40
2013,08,23,13,39,20.50
2013,08,23,13,40,20.50
2013,08,23,13,41,20.60
2013,08,23,13,42,20.60
2013,08,23,13,43,20.60
2013,08,23,13,44,20.70
2013,08,23,13,45,20.70
2013,08,23,13,46,20.70
2013,08,23,13,47,20.80
2013,08,23,13,48,20.80
2013,08,23,13,49,20.90
2013,08,23,13,50,20.90
2013,08,23,13,51,20.90
2013,08,23,13,52,20.90
2013,08,23,13,53,21.00
2013,08,23,13,54,21.00
2013,08,23,13,55,21.00
2013,08,23,13,56,21.00
2013,08,23,13,57,21.00
2013,08,23,13,58,21.00
2013,08,23,13,59,21.10
2013,08,23,14,00,21.00
2013,08,23,14,01,21.00
2013,08,23,14,02,20.90
2013,08,23,14,03,20.90
2013,08,23,14,04,20.90
2013,08,23,14,05,20.80
2013,08,23,14,06,20.80
2013,08,23,14,07,20.80
2013,08,23,14,08,20.80
2013,08,23,14,09,20.80
2013,08,23,14,10,20.80
2013,08,23,14,11,20.80
2013,08,23,14,12,20.80
2013,08,23,14,13,20.80
2013,08,23,14,14,20.80
2013,08,23,14,15,20.80
2013,08,23,14,16,20.80
2013,08,23,14,17,20.80
2013,08,23,14,18,20.90
2013,08,23,14,19,21.00
2013,08,23,14,20,21.10
2013,08,23,14,21,21.30
2013,08,23,14,22,21.30
2013,08,23,14,23,21.40
2013,08,23,14,24,21.60
2013,08,23,14,25,21.60
2013,08,23,14,26,21.70
2013,08,23,14,27,21.80
2013,08,23,14,28,21.80
2013,08,23,14,29,21.80
2013,08,23,14,30,21.90
2013,08,23,14,31,22.00
2013,08,23,14,32,22.00
2013,08,23,14,33,22.10
2013,08,23,14,34,22.20
2013,08,23,14,35,22.30
2013,08,23,14,36,22.20
2013,08,23,14,37,22.10
2013,08,23,14,38,22.10
2013,08,23,14,39,22.10
2013,08,23,14,40,22.20
2013,08,23,14,41,22.30
2013,08,23,14,42,22.30
2013,08,23,14,43,22.30
2013,08,23,14,44,22.30
2013,08,23,14,45,22.20
2013,08,23,14,46,22.10
2013,08,23,14,47,22.00
2013,08,23,14,48,21.90
2013,08,23,14,49,21.80
2013,08,23,14,50,21.70
2013,08,23,14,51,21.60
2013,08,23,14,52,21.50
2013,08,23,14,53,21.30
2013,08,23,14,54,21.20
2013,08,23,14,55,21.20
2013,08,23,14,56,21.20
2013,08,23,14,57,21.20
2013,08,23,14,58,21.10
2013,08,23,14,59,21.00
2013,08,23,15,00,20.80
2013,08,23,15,01,20.80
2013,08,23,15,02,20.70
2013,08,23,15,03,20.70
2013,08,23,15,04,20.70
2013,08,23,15,05,20.60
2013,08,23,15,06,20.50
2013,08,23,15,07,20.50
2013,08,23,15,08,20.60
2013,08,23,15,09,20.50
2013,08,23,15,10,20.60
2013,08,23,15,11,20.60
2013,08,23,15,12,20.60
2013,08,23,15,13,20.60
2013,08,23,15,14,20.60
2013,08,23,15,15,20.60
2013,08,23,15,16,20.60
2013,08,23,15,17,20.60
2013,08,23,15,18,20.60
2013,08,23,15,19,20.60
2013,08,23,15,20,20.70
2013,08,23,15,21,20.80
2013,08,23,15,22,20.80
2013,08,23,15,23,20.80
2013,08,23,15,24,20.90
2013,08,23,15,25,20.90
2013,08,23,15,26,20.90
2013,08,23,15,27,20.80
2013,08,23,15,28,20.80
2013,08,23,15,29,20.70
2013,08,23,15,30,20.70
2013,08,23,15,31,20.70
2013,08,23,15,32,20.70
2013,08,23,15,33,20.70
2013,08,23,15,34,20.70
2013,08,23,15,35,20.70
2013,08,23,15,36,20.60
2013,08,23,15,37,20.50
2013,08,23,15,38,20.40
2013,08,23,15,39,20.30
2013,08,23,15,40,20.30
2013,08,23,15,41,20.40
2013,08,23,15,42,20.40
2013,08,23,15,43,20.50
2013,08,23,15,44,20.50
2013,08,23,15,45,20.60
2013,08,23,15,46,20.60
2013,08,23,15,47,20.60
2013,08,23,15,48,20.70
2013,08,23,15,49,20.70
2013,08,23,15,50,20.70
2013,08,23,15,51,20.80
2013,08,23,15,52,20.80
2013,08,23,15,53,20.80
2013,08,23,15,54,20.90
2013,08,23,15,55,20.90
2013,08,23,15,56,20.90
2013,08,23,15,57,20.90
2013,08,23,15,58,20.90
2013,08,23,15,59,21.00
2013,08,23,16,00,21.00
2013,08,23,16,01,21.10
2013,08,23,16,02,21.10
2013,08,23,16,03,21.10
2013,08,23,16,04,21.00
2013,08,23,16,05,21.00
2013,08,23,16,06,20.90
2013,08,23,16,07,20.90
2013,08,23,16,08,20.80
2013,08,23,16,09,20.80
2013,08,23,16,10,20.80
2013,08,23,16,11,20.80
2013,08,23,16,12,20.80
2013,08,23,16,13,20.80
2013,08,23,16,14,20.90
2013,08,23,16,15,20.80
2013,08,23,16,16,20.80
2013,08,23,16,17,20.70
2013,08,23,16,18,20.70
2013,08,23,16,19,20.70
2013,08,23,16,20,20.70
2013,08,23,16,21,20.80
2013,08,23,16,22,20.90
2013,08,23,16,23,21.00
2013,08,23,16,24,21.20
2013,08,23,16,25,21.40
2013,08,23,16,26,21.50
2013,08,23,16,27,21.70
2013,08,23,16,28,21.80
2013,08,23,16,29,21.80
2013,08,23,16,30,21.80
2013,08,23,16,31,21.80
2013,08,23,16,32,21.90
2013,08,23,16,33,21.90
2013,08,23,16,34,21.90
2013,08,23,16,35,21.90
2013,08,23,16,36,21.80
2013,08,23,16,37,21.80
2013,08,23,16,38,21.70
2013,08,23,16,39,21.60
2013,08,23,16,40,21.60
2013,08,23,16,41,21.50
2013,08,23,16,42,21.50
2013,08,23,16,43,21.40
2013,08,23,16,44,21.40
2013,08,23,16,45,21.40
2013,08,23,16,46,21.40
2013,08,23,16,47,21.40
2013,08,23,16,48,21.50
2013,08,23,16,49,21.50
2013,08,23,16,50,21.40
2013,08,23,16,51,21.40
2013,08,23,16,52,21.40
2013,08,23,16,53,21.40
2013,08,23,16,54,21.30
2013,08,23,16,55,21.30
2013,08,23,16,56,21.20
2013,08,23,16,57,21.10
2013,08,23,16,58,21.10
2013,08,23,16,59,21.10
2013,08,23,17,00,21.00
2013,08,23,17,01,21.00
2013,08,23,17,02,20.90
2013,08,23,17,03,20.90
2013,08,23,17,04,20.80
2013,08,23,17,05,20.80
2013,08,23,17,06,20.70
2013,08,23,17,07,20.60
2013,08,23,17,08,20.60
2013,08,23,17,09,20.50
2013,08,23,17,10,20.40
2013,08,23,17,11,20.40
2013,08,23,17,12,20.40
2013,08,23,17,13,20.40
2013,08,23,17,14,20.40
2013,08,23,17,15,20.40
2013,08,23,17,16,20.30
2013,08,23,17,17,20.20
2013,08,23,17,18,20.20
2013,08,23,17,19,20.20